DIAMANT R/B, 2671

Orbit data source: Space-Track

DIAMANT R/B, 2671 is space debris in LEO originally from a launch on Wed, 08 Feb 1967 UTC launched from the Hamma Guira Space Track Range (HGSTR). Debris objects in space refer to the collection of defunct objects orbiting the Earth. Examples of debris include non-operational satellites, rocket bodies, and fragments generated from explosions, collisions, or faulty payload assembly.

Loading next visibility...
Identifier
2671, 1967-011B
Orbit
LEO
Last TLE update
16 hours ago
Origin
Manufacturer
Sud
Mission
Spacecraft
Bus & Motor
RUBIS, Unknown motor
Mass
65 kg wet, 65 kg dry
Launch date (UTC)
1967-02-08 (58 years ago)
Launch vehicle
Unknown
Launch site
Hamma Guira Space Track Range (HGSTR)
Object type
Payload
Rocket body
Debris
Shape & HBR
Cyl, 2.1 m
Radar Cross Section
1.347 m², Large (>1 m²)

Expand to show TLE details & history

TLE from 16 hours ago
0 DIAMANT R/B
1  2671U 67011B   25109.20922270  .00001492  00000-0  30888-3 0  9998
2  2671  39.9430 156.5330 0337940 130.8055 232.2545 14.32870566995230
Epoch: 2025-04-19T05:01Z
Definitive object data (Epoch: 2025-04-19T05:01:16.841Z)
Latitude
-0°
Longitude
-126.34288°
Altitude
934.672 km
Speed
7.307 km/s
True Right ascension
10h 26m 07s
True Declination
0° 00' 00"
Sunlit
Object was in full shadow at TLE epoch
Visualization TLE readout
Latitude
-24.86474°
Longitude
83.63637°
Altitude
760.868 km
Speed
7.489 km/s
Apparent Right ascension
21h 14m 07s
Apparent Declination
-53° 23' 55"
Sunlit
Object is in daylight
Visualization observer readout
Local Sidereal Time
03:56:35
Azimuth
227.066° WSW
Elevation
-36.828°
Doppler factor
1
Orbital elements
Apogee altitude
1,026.563 km
Perigee altitude
542.454 km
Semi-major axis
7,162.645 km
Eccentricity
0.033794
Inclination
39.943°
RAAN
156.533°
Arg. of periapsis
130.8055°
True anomaly
229.27097°
Mean anomaly
232.2545°
Eccentric anomaly
230.75497°
Mean motion
3.58041 °/min
BSTAR
0.00030888
Orbital period
100.55 mins
Loading maneuver chart data...
Loading SW <> Apogee altitude chart data...

DIAMANT R/B Visibility forecast

Observer location: undefined°, undefined°

Span
Click to sort rows by Start time (UTC) header in descending order
Start Az.
Max El. time (UTC)
Max El. Az.
Max El.
End time (UTC)
End Az.
7 mins2025-04-20 06:20:12.751Z211.381° SW2025-04-20 06:23:12.751Z162.622° S31.084°2025-04-20 06:27:12.751Z92.215° ESE
8 mins2025-04-20 08:05:12.751Z255.919° W2025-04-20 08:09:12.751Z171.099° S44.633°2025-04-20 08:13:12.751Z84.01° E
7 mins2025-04-20 09:52:12.751Z274.727° WNW2025-04-20 09:55:12.751Z144.184° SSE44.68°2025-04-20 09:59:12.751Z100.712° ESE
6 mins2025-04-20 11:38:12.751Z259.809° W2025-04-20 11:40:12.751Z218.295° SW29.102°2025-04-20 11:44:12.751Z140.257° SSE
|